• In Netherlands
  • List of Countries
  • For 7 days
  • Water Temperature
  • Satellite Maps
  • Weather Map
  • Weather Widgets
  • user-avatar
    Login

    Hourly Weather Kiustendil

    Today, 19 September, Tuesday

    Time Temperature Precipitation Wind Pressure Humidity
    00:00 +11°C° 0 mm 1 mps 624 mmHg 62%
    01:00 +11°C° 0 mm 1 mps 624 mmHg 61%
    02:00 +10°C° 0 mm 1 mps 624 mmHg 63%
    03:00 +10°C° 0 mm 1 mps 623 mmHg 65%
    04:00 +9°C° 0 mm 1 mps 623 mmHg 67%
    05:00 +11°C° 0 mm 1 mps 623 mmHg 62%
    06:00 +12°C° 0 mm 1 mps 624 mmHg 57%
    07:00 +13°C° 0 mm 0 mps 624 mmHg 52%
    08:00 +16°C° 0 mm 1 mps 625 mmHg 45%
    09:00 +18°C° 0 mm 2 mps 626 mmHg 39%
    10:00 +20°C° 0 mm 2 mps 626 mmHg 32%
    11:00 +21°C° 0 mm 3 mps 626 mmHg 28%
    12:00 +22°C° 0 mm 3 mps 626 mmHg 24%
    13:00 +23°C° 0 mm 4 mps 626 mmHg 20%
    14:00 +23°C° 0 mm 4 mps 626 mmHg 19%
    15:00 +23°C° 0 mm 4 mps 626 mmHg 19%
    16:00 +23°C° 0 mm 5 mps 626 mmHg 18%
    17:00 +20°C° 0 mm 4 mps 625 mmHg 23%
    18:00 +17°C° 0 mm 3 mps 624 mmHg 28%
    19:00 +13°C° 0 mm 2 mps 623 mmHg 33%
    20:00 +12°C° 0 mm 2 mps 623 mmHg 36%
    21:00 +11°C° 0 mm 1 mps 623 mmHg 38%
    22:00 +10°C° 0 mm 1 mps 622 mmHg 41%
    23:00 +10°C° 0 mm 1 mps 622 mmHg 42%

    Tomorrow, 20 September, Wednesday

    Time Temperature Precipitation Wind Pressure Humidity
    00:00 +9°C° 0 mm 1 mps 622 mmHg 44%
    01:00 +9°C° 0 mm 1 mps 622 mmHg 46%
    02:00 +9°C° 0 mm 1 mps 622 mmHg 48%
    03:00 +8°C° 0 mm 1 mps 621 mmHg 51%
    04:00 +8°C° 0 mm 1 mps 621 mmHg 53%
    05:00 +9°C° 0 mm 1 mps 622 mmHg 50%
    06:00 +11°C° 0 mm 1 mps 622 mmHg 46%
    07:00 +11°C° 0 mm 0 mps 623 mmHg 43%
    08:00 +14°C° 0 mm 1 mps 623 mmHg 39%
    09:00 +16°C° 0 mm 2 mps 624 mmHg 34%
    10:00 +18°C° 0 mm 2 mps 625 mmHg 30%
    11:00 +19°C° 0 mm 3 mps 625 mmHg 28%
    12:00 +20°C° 0 mm 3 mps 624 mmHg 27%
    13:00 +20°C° 0 mm 4 mps 624 mmHg 26%
    14:00 +19°C° 0 mm 4 mps 624 mmHg 29%
    15:00 +18°C° 0 mm 3 mps 623 mmHg 32%
    16:00 +17°C° 0 mm 3 mps 623 mmHg 35%
    17:00 +14°C° 0.1 mm 3 mps 623 mmHg 42%
    18:00 +12°C° 0.1 mm 3 mps 622 mmHg 48%
    19:00 +10°C° 0.1 mm 3 mps 622 mmHg 55%
    20:00 +9°C° 0.1 mm 2 mps 622 mmHg 59%
    21:00 +8°C° 0.1 mm 2 mps 622 mmHg 64%
    22:00 +7°C° 0.1 mm 2 mps 622 mmHg 69%
    23:00 +6°C° 0 mm 2 mps 621 mmHg 73%

    Day after tomorrow, 21 September, Thursday

    Time Temperature Precipitation Wind Pressure Humidity
    00:00 +5°C° 0 mm 2 mps 621 mmHg 78%
    01:00 +4°C° 0 mm 2 mps 621 mmHg 82%
    02:00 +4°C° 0 mm 2 mps 621 mmHg 84%
    03:00 +3°C° 0 mm 2 mps 621 mmHg 86%
    04:00 +4°C° 0 mm 1 mps 621 mmHg 88%
    05:00 +5°C° 0 mm 1 mps 621 mmHg 84%
    06:00 +5°C° 0 mm 2 mps 622 mmHg 79%
    07:00 +5°C° 0 mm 2 mps 622 mmHg 74%
    08:00 +7°C° 0 mm 2 mps 623 mmHg 65%
    09:00 +8°C° 0 mm 2 mps 623 mmHg 56%
    10:00 +10°C° 0 mm 3 mps 624 mmHg 47%
    11:00 +11°C° 0.1 mm 3 mps 624 mmHg 45%
    12:00 +11°C° 0.1 mm 3 mps 624 mmHg 42%
    13:00 +12°C° 0.1 mm 3 mps 624 mmHg 40%
    14:00 +11°C° 0.2 mm 3 mps 624 mmHg 42%
    15:00 +11°C° 0.2 mm 3 mps 624 mmHg 44%
    16:00 +11°C° 0.2 mm 3 mps 623 mmHg 45%
    17:00 +8°C° 0.1 mm 3 mps 623 mmHg 54%
    18:00 +6°C° 0.1 mm 2 mps 623 mmHg 62%
    19:00 +4°C° 0.1 mm 2 mps 622 mmHg 71%
    20:00 +4°C° 0 mm 2 mps 622 mmHg 73%
    21:00 +4°C° 0 mm 1 mps 623 mmHg 75%
    22:00 +3°C° 0 mm 1 mps 623 mmHg 78%
    23:00 +3°C° 0 mm 1 mps 623 mmHg 79%

    22 September, Friday

    Time Temperature Precipitation Wind Pressure Humidity
    00:00 +3°C° 0 mm 1 mps 623 mmHg 80%
    01:00 +2°C° 0 mm 1 mps 622 mmHg 81%
    02:00 +2°C° 0 mm 1 mps 622 mmHg 82%
    03:00 +2°C° 0 mm 1 mps 622 mmHg 82%
    04:00 +2°C° 0 mm 1 mps 622 mmHg 83%
    05:00 +3°C° 0 mm 1 mps 623 mmHg 78%
    06:00 +4°C° 0 mm 1 mps 623 mmHg 72%
    07:00 +5°C° 0 mm 1 mps 624 mmHg 67%
    08:00 +6°C° 0 mm 2 mps 624 mmHg 62%
    09:00 +7°C° 0 mm 2 mps 625 mmHg 56%
    10:00 +9°C° 0 mm 2 mps 625 mmHg 51%
    11:00 +9°C° 0 mm 2 mps 625 mmHg 50%
    12:00 +10°C° 0 mm 2 mps 626 mmHg 49%
    13:00 +10°C° 0 mm 3 mps 626 mmHg 48%
    14:00 +10°C° 0 mm 3 mps 626 mmHg 50%
    15:00 +9°C° 0 mm 3 mps 626 mmHg 52%
    16:00 +9°C° 0 mm 3 mps 626 mmHg 54%
    17:00 +8°C° 0 mm 2 mps 626 mmHg 60%
    18:00 +6°C° 0 mm 2 mps 625 mmHg 67%
    19:00 +5°C° 0 mm 1 mps 625 mmHg 74%
    20:00 +5°C° 0 mm 1 mps 625 mmHg 75%
    21:00 +5°C° 0 mm 1 mps 625 mmHg 77%
    22:00 +4°C° 0 mm 1 mps 626 mmHg 79%
    23:00 +4°C° 0 mm 1 mps 625 mmHg 81%

    23 September, Saturday

    Time Temperature Precipitation Wind Pressure Humidity
    00:00 +3°C° 0 mm 1 mps 625 mmHg 83%
    01:00 +2°C° 0 mm 1 mps 625 mmHg 85%
    02:00 +2°C° 0 mm 1 mps 625 mmHg 85%
    03:00 +2°C° 0 mm 1 mps 625 mmHg 85%
    04:00 +2°C° 0 mm 1 mps 625 mmHg 86%
    05:00 +3°C° 0 mm 1 mps 625 mmHg 80%
    06:00 +5°C° 0 mm 1 mps 626 mmHg 74%
    07:00 +6°C° 0 mm 1 mps 627 mmHg 68%
    08:00 +8°C° 0 mm 1 mps 627 mmHg 60%
    09:00 +10°C° 0 mm 1 mps 628 mmHg 52%
    10:00 +12°C° 0 mm 2 mps 629 mmHg 44%
    11:00 +13°C° 0 mm 2 mps 629 mmHg 41%
    12:00 +14°C° 0 mm 2 mps 629 mmHg 38%
    13:00 +15°C° 0 mm 2 mps 629 mmHg 34%
    14:00 +15°C° 0 mm 2 mps 628 mmHg 35%
    15:00 +14°C° 0 mm 1 mps 628 mmHg 35%
    16:00 +14°C° 0 mm 1 mps 628 mmHg 35%
    17:00 +12°C° 0 mm 1 mps 628 mmHg 42%
    18:00 +9°C° 0 mm 1 mps 627 mmHg 49%
    19:00 +7°C° 0 mm 1 mps 626 mmHg 57%
    20:00 +6°C° 0 mm 1 mps 626 mmHg 58%
    21:00 +6°C° 0 mm 1 mps 626 mmHg 60%
    22:00 +5°C° 0 mm 1 mps 626 mmHg 62%
    23:00 +5°C° 0 mm 1 mps 626 mmHg 63%

    24 September, Sunday

    Time Temperature Precipitation Wind Pressure Humidity
    00:00 +5°C° 0 mm 1 mps 626 mmHg 63%
    01:00 +4°C° 0 mm 1 mps 626 mmHg 64%
    02:00 +4°C° 0 mm 1 mps 625 mmHg 65%
    03:00 +4°C° 0 mm 1 mps 625 mmHg 66%
    04:00 +3°C° 0 mm 1 mps 625 mmHg 66%
    05:00 +5°C° 0 mm 1 mps 626 mmHg 60%
    06:00 +7°C° 0 mm 1 mps 627 mmHg 54%
    07:00 +7°C° 0 mm 0 mps 628 mmHg 48%
    08:00 +11°C° 0 mm 1 mps 628 mmHg 43%
    09:00 +13°C° 0 mm 2 mps 629 mmHg 37%
    10:00 +15°C° 0 mm 2 mps 630 mmHg 32%
    11:00 +16°C° 0 mm 2 mps 630 mmHg 29%
    12:00 +17°C° 0 mm 2 mps 630 mmHg 27%
    13:00 +18°C° 0 mm 2 mps 630 mmHg 24%
    14:00 +18°C° 0 mm 2 mps 630 mmHg 25%
    15:00 +17°C° 0 mm 2 mps 630 mmHg 26%
    16:00 +17°C° 0 mm 2 mps 630 mmHg 27%
    17:00 +14°C° 0 mm 1 mps 629 mmHg 33%
    18:00 +12°C° 0 mm 1 mps 628 mmHg 40%
    19:00 +9°C° 0 mm 1 mps 627 mmHg 46%
    20:00 +9°C° 0 mm 1 mps 627 mmHg 48%
    21:00 +8°C° 0 mm 1 mps 627 mmHg 51%
    22:00 +7°C° 0 mm 1 mps 627 mmHg 53%
    23:00 +7°C° 0 mm 1 mps 627 mmHg 55%
    Show more